Location: Czekanka
(50.4925°N, 19.2643°E)
Time: 13:34:07
(UTC+00:00)

SL-24 DEB - Pass Details

Date: 15 June 2024
Orbit: 650 x 679 km, 92.0° (Epoch: 16 July)

Event Time Altitude Azimuth Distance (km) Brightness Sun altitude
Rises 01:21:22 0° 4° (N) 2,989 8.7 -8.4°
Reaches altitude 10° 01:23:36 10° 5° (N) 2,075 7.8 -8.2°
Maximum altitude 01:28:10 89° 290° (WNW) 665 4.2 -7.7°
Drops below altitude 10° 01:32:44 10° 187° (S) 2,073 6.2 -7.3°
Enters shadow 01:33:54 - 187° (S) 2,548 6.7 -7.2°
